Weather History for KMDD - May, 2013

Change the Weather History Date:

Tuesday, May 7, 2013

  Actual Average (KMAF) Record (KMAF)
Temperature  
Mean Temperature 70 °F 71 °F  
Max Temperature 89 °F 85 °F 103 °F (2009)
Min Temperature 52 °F 57 °F 42 °F (1933)
Cooling Degree Days 5 7  
Month to date cooling degree days 43  
Year to date cooling degree days 151  
Growing Degree Days 20 (Base 50)    
Moisture  
Dew Point 44 °F    
Average Humidity 43    
Maximum Humidity 72    
Minimum Humidity 15    
Precipitation  
Precipitation 0.00 in 0.04 in 1.35 in (1959)
Month to date precipitation 0.23  
Year to date precipitation 2.75  
Sea Level Pressure  
Sea Level Pressure 29.97 in    
Wind  
Wind Speed 9 mph (SSE)    
Max Wind Speed 17 mph    
Max Gust Speed 24 mph    
Visibility 10 miles    
Events      
T = Trace of Precipitation, MM = Missing Value Source: NWS Daily Summary

Daily Weather History Graph

Daily Weather History Graph

Search for Another Location

Airport or City:

Trip Planner

Search our weather history database for the weather conditions in past years. The results will help you decide how hot, cold, wet, or windy it might be!

Date:

Astronomy

May. 07, 2013 Rise Set
Actual Time 6:56 AM CDT 8:33 PM CDT
Civil Twilight 6:30 AM CDT 8:59 PM CDT
Nautical Twilight 5:58 AM CDT 9:31 PM CDT
Astronomical Twilight 5:25 AM CDT 10:05 PM CDT
Moon 5:24 AM CDT (5/7) 6:40 PM CDT (5/7)
Length of Visible Light 14h 29m
Length of Day
13h 36m
Waning Crescent, 5% of the Moon is Illuminated
May 7
Waning Crescent
May 9
New
May 17
First Quarter
May 24
Full
May 31
Last Quarter

Hourly Weather History & Observations

Time (CDT) Temp. Dew Point Humidity Pressure Visibility Wind Dir Wind Speed Gust Speed Precip Events Conditions
12:15 AM 59.9 °F 44.8 °F 57% 30.04 in 10.0 mi SE 8.1 mph - N/A   Clear
12:35 AM 59.5 °F 44.8 °F 58% 30.04 in 10.0 mi SE 8.1 mph - N/A   Clear
12:55 AM 59.4 °F 45.0 °F 59% 30.04 in 10.0 mi SE 11.5 mph - N/A   Clear
1:15 AM 59.0 °F 45.1 °F 60% 30.03 in 10.0 mi SE 11.5 mph - N/A   Clear
1:35 AM 58.8 °F 45.1 °F 60% 30.03 in 10.0 mi SE 10.4 mph - N/A   Clear
1:55 AM 58.5 °F 45.1 °F 61% 30.03 in 10.0 mi SE 6.9 mph - N/A   Clear
2:15 AM 56.7 °F 44.8 °F 64% 30.04 in 10.0 mi ENE 9.2 mph - N/A   Clear
2:35 AM 55.9 °F 44.1 °F 64% 30.04 in 10.0 mi East 6.9 mph - N/A   Clear
2:55 AM 55.9 °F 44.2 °F 65% 30.03 in 10.0 mi East 5.8 mph - N/A   Clear
3:15 AM 55.6 °F 44.4 °F 66% 30.03 in 10.0 mi East 6.9 mph - N/A   Clear
3:35 AM 55.4 °F 44.2 °F 66% 30.03 in 10.0 mi East 5.8 mph - N/A   Clear
3:55 AM 55.0 °F 43.9 °F 66% 30.03 in 10.0 mi East 6.9 mph - N/A   Clear
4:15 AM 55.2 °F 44.2 °F 67% 30.03 in 10.0 mi East 6.9 mph - N/A   Clear
4:35 AM 55.0 °F 44.2 °F 67% 30.03 in 10.0 mi ESE 5.8 mph - N/A   Clear
4:55 AM 54.7 °F 44.1 °F 67% 30.03 in 10.0 mi East 4.6 mph - N/A   Clear
5:15 AM 54.7 °F 44.6 °F 69% 30.02 in 10.0 mi ESE 5.8 mph - N/A   Clear
5:35 AM 54.5 °F 44.4 °F 69% 30.02 in 10.0 mi SE 6.9 mph - N/A   Clear
5:55 AM 53.8 °F 44.1 °F 70% 30.01 in 10.0 mi ESE 5.8 mph - N/A   Clear
6:15 AM 53.1 °F 43.9 °F 71% 30.02 in 10.0 mi SE 6.9 mph - N/A   Clear
6:35 AM 52.7 °F 43.9 °F 72% 30.02 in 10.0 mi SE 5.8 mph - N/A   Clear
6:55 AM 52.7 °F 43.9 °F 72% 30.02 in 10.0 mi SE 5.8 mph - N/A   Clear
7:15 AM 52.7 °F 43.9 °F 72% 30.03 in 10.0 mi ESE 5.8 mph - N/A   Clear
7:35 AM 54.1 °F 44.4 °F 70% 30.03 in 10.0 mi SE 5.8 mph - N/A   Clear
7:55 AM 55.4 °F 44.6 °F 67% 30.03 in 10.0 mi SE 9.2 mph - N/A   Clear
8:15 AM 57.4 °F 45.3 °F 64% 30.03 in 10.0 mi SE 6.9 mph - N/A   Clear
8:35 AM 58.6 °F 45.9 °F 63% 30.04 in 10.0 mi South 8.1 mph - N/A   Clear
8:55 AM 61.0 °F 46.8 °F 59% 30.03 in 10.0 mi South 10.4 mph - N/A   Clear
9:15 AM 63.7 °F 47.8 °F 56% 30.03 in 10.0 mi South 11.5 mph - N/A   Clear
9:35 AM 65.3 °F 48.2 °F 54% 30.03 in 10.0 mi South 11.5 mph - N/A   Clear
9:55 AM 67.8 °F 48.6 °F 50% 30.03 in 10.0 mi South 15.0 mph - N/A   Clear
10:15 AM 69.3 °F 49.1 °F 49% 30.03 in 10.0 mi South 12.7 mph 19.6 mph N/A   Clear
10:35 AM 72.3 °F 49.1 °F 44% 30.03 in 10.0 mi SSE 13.8 mph - N/A   Clear
10:55 AM 73.4 °F 49.1 °F 42% 30.03 in 7.0 mi South 12.7 mph 17.3 mph N/A   Clear
11:15 AM 74.3 °F 47.8 °F 39% 30.03 in 10.0 mi South 12.7 mph 17.3 mph N/A   Clear
11:35 AM 76.1 °F 47.3 °F 36% 30.02 in 10.0 mi South 13.8 mph 17.3 mph N/A   Clear
11:55 AM 76.6 °F 47.1 °F 35% 30.02 in 10.0 mi SSE 8.1 mph - N/A   Clear
12:15 PM 78.3 °F 46.0 °F 32% 30.02 in 10.0 mi SSE 9.2 mph - N/A   Clear
12:35 PM 79.2 °F 45.7 °F 31% 30.01 in 10.0 mi South 8.1 mph - N/A   Clear
12:55 PM 80.8 °F 45.5 °F 29% 30.00 in 10.0 mi South 12.7 mph 17.3 mph N/A   Clear
1:15 PM 82.8 °F 44.8 °F 26% 29.99 in - SSE 9.2 mph - N/A   Unknown
1:35 PM 83.1 °F 44.2 °F 25% 29.98 in 10.0 mi South 11.5 mph 17.3 mph N/A   Clear
1:55 PM 84.7 °F 43.7 °F 24% 29.97 in 10.0 mi South 9.2 mph - N/A   Clear
2:15 PM 85.6 °F 43.2 °F 22% 29.96 in 10.0 mi SSE 12.7 mph 16.1 mph N/A   Clear
2:35 PM 86.4 °F 42.6 °F 22% 29.95 in 10.0 mi SE 8.1 mph 20.7 mph N/A   Clear
2:55 PM 87.3 °F 41.2 °F 20% 29.94 in 10.0 mi SE 12.7 mph 18.4 mph N/A   Clear
3:15 PM 88.0 °F 37.8 °F 17% 29.93 in 10.0 mi South 9.2 mph 19.6 mph N/A   Clear
3:35 PM 87.8 °F 35.6 °F 16% 29.93 in 10.0 mi SSE 8.1 mph - N/A   Clear
3:55 PM 88.7 °F 36.1 °F 16% 29.92 in 10.0 mi South 6.9 mph - N/A   Scattered Clouds
4:15 PM 88.5 °F 34.5 °F 15% 29.91 in 10.0 mi SSE 13.8 mph - N/A   Scattered Clouds
4:35 PM 86.7 °F 36.0 °F 16% 29.90 in 10.0 mi SSW 12.7 mph 20.7 mph N/A   Scattered Clouds
4:55 PM 86.7 °F 37.4 °F 17% 29.89 in 10.0 mi South 17.3 mph - N/A   Scattered Clouds
5:15 PM 86.9 °F 34.5 °F 15% 29.89 in 10.0 mi South 11.5 mph 17.3 mph N/A   Clear
5:35 PM 87.3 °F 35.1 °F 16% 29.88 in 10.0 mi SSE 9.2 mph 21.9 mph N/A   Clear
5:55 PM 88.2 °F 34.5 °F 15% 29.88 in 10.0 mi South 13.8 mph 23.0 mph N/A   Clear
6:15 PM 86.9 °F 36.5 °F 17% 29.88 in 10.0 mi South 17.3 mph 23.0 mph N/A   Clear
6:35 PM 85.8 °F 39.2 °F 19% 29.87 in 10.0 mi SSE 16.1 mph 23.0 mph N/A   Clear
6:55 PM 85.5 °F 39.2 °F 19% 29.87 in 10.0 mi SSE 16.1 mph 21.9 mph N/A   Clear
7:15 PM 84.6 °F 41.5 °F 22% 29.87 in 10.0 mi SSE 12.7 mph 24.2 mph N/A   Clear
7:35 PM 83.5 °F 43.2 °F 24% 29.87 in 10.0 mi South 15.0 mph 21.9 mph N/A   Clear
7:55 PM 82.4 °F 43.7 °F 26% 29.87 in 10.0 mi South 17.3 mph 24.2 mph N/A   Scattered Clouds
8:15 PM 81.5 °F 43.7 °F 26% 29.88 in 10.0 mi South 12.7 mph - N/A   Clear
8:35 PM 80.6 °F 43.9 °F 27% 29.88 in 10.0 mi South 15.0 mph 21.9 mph N/A   Clear
8:55 PM 79.7 °F 44.1 °F 28% 29.88 in 10.0 mi South 12.7 mph 18.4 mph N/A   Clear
9:15 PM 78.8 °F 43.7 °F 29% 29.89 in 10.0 mi South 11.5 mph 17.3 mph N/A   Clear
9:35 PM 77.9 °F 44.1 °F 30% 29.90 in 10.0 mi South 9.2 mph - N/A   Clear
9:55 PM 77.4 °F 44.6 °F 31% 29.91 in 10.0 mi South 10.4 mph - N/A   Clear
10:15 PM 76.6 °F 45.1 °F 33% 29.92 in 10.0 mi South 10.4 mph - N/A   Clear
10:35 PM 75.7 °F 46.6 °F 35% 29.92 in 10.0 mi SSE 11.5 mph - N/A   Clear
10:55 PM 75.2 °F 48.6 °F 39% 29.93 in 10.0 mi South 10.4 mph - N/A   Clear
11:15 PM 74.5 °F 50.0 °F 42% 29.93 in 10.0 mi SSE 9.2 mph - N/A   Clear
11:35 PM 74.5 °F 52.0 °F 45% 29.93 in 10.0 mi SSE 12.7 mph 17.3 mph N/A   Clear
11:55 PM 73.9 °F 52.9 °F 48% 29.93 in 10.0 mi SSE 12.7 mph 18.4 mph N/A   Clear